SCP
1 1 1 1 3 4 3 2 1 2 2 3 4 3 2 1 1 1 1 1 0 1 0 0 0 1 1 1 1 1 1 1 1 1 1 0 1 1 1 1 1 1 1
1 1 1 2 3 4 4 2 2 2 3 3 4 3 2 1 1 1 1 1 0 1 1 1 1 1 1 1 1 1 1 1 1 1 1 0 1 1 1 1 1 1 1
1 1 2 2 3 4 4 3 3 3 3 4 3 3 2 1 1 1 1 1 1 1 1 1 1 1 1 1 1 1 1 1 1 1 1 1 1 1 1 1 1 1 1
1 1 2 2 2 3 3 4 3 3 3 4 3 2 2 1 1 1 1 1 1 1 1 1 1 1 1 1 1 1 1 1 1 1 1 1 1 1 1 1 1 1 1
1 1 1 1 2 2 3 4 5 4 4 4 3 2 2 1 1 1 1 1 1 1 1 1 1 1 1 1 1 1 1 1 2 2 2 2 2 2 1 1 1 1 1
1 1 1 1 2 2 3 5 5 6 5 4 3 2 2 2 2 1 1 1 1 1 1 1 1 1 1 1 1 1 1 2 2 2 3 3 3 2 2 1 1 1 1
1 1 2 2 2 3 3 4 5 5 5 4 3 3 2 2 2 1 1 1 1 1 2 2 2 2 2 2 2 2 2 2 2 3 4 4 4 3 2 2 1 1 1
1 1 3 3 3 3 3 3 4 4 4 4 3 3 3 2 2 2 1 1 1 2 2 2 2 2 2 2 2 2 2 3 3 3 4 4 4 4 3 2 1 1 1
1 2 3 3 3 3 3 2 3 3 4 4 4 4 3 3 3 2 2 2 2 2 2 2 2 3 3 3 3 3 3 3 4 4 4 4 4 4 3 2 2 1 1
2 3 4 3 3 2 2 3 3 3 3 4 4 4 4 4 3 3 3 3 3 2 2 3 3 3 4 4 4 4 3 3 4 4 4 4 4 3 3 2 2 2 1
4 4 4 3 2 3 3 3 3 3 3 4 4 5 5 4 4 3 3 3 3 3 3 4 4 4 5 5 5 4 3 3 4 4 4 4 3 3 3 3 3 2 2
4 4 4 3 3 3 3 3 3 4 4 4 4 5 6 5 4 3 4 4 4 4 4 5 6 6 6 6 5 4 3 3 4 4 4 3 3 3 3 3 3 2 2
4 4 5 5 4 4 4 4 3 3 3 3 4 5 6 5 4 4 4 4 4 5 6 7 7 7 6 6 5 4 3 3 4 4 3 3 3 4 4 4 3 3 2
3 4 5 5 5 5 5 4 4 3 3 3 4 4 5 5 5 4 4 4 5 6 7 8 7 7 6 5 4 3 3 3 3 4 3 3 3 4 4 4 4 3 3
3 4 5 7 7 7 6 6 5 4 4 4 4 5 5 6 5 5 5 5 6 7 8 8 7 6 6 5 4 3 3 3 3 3 3 3 3 3 4 3 3 3 4
3 4 6 8 9 9 9 9 8 7 6 6 6 6 6 6 5 5 5 6 7 7 7 7 7 6 5 4 3 3 3 3 3 3 3 3 3 3 3 2 2 2 3
4 5 7 8 9 9 11 12 12 10 8 8 10 10 9 7 6 6 6 7 8 8 7 7 6 5 5 4 3 2 2 3 3 4 5 4 4 4 4 3 2 1 2
4 5 6 7 8 9 12 15 15 12 9 9 12 13 12 9 8 7 7 8 9 9 8 6 5 5 5 4 3 2 2 3 4 5 6 6 5 4 4 3 2 2 2
5 5 5 6 7 10 13 16 16 13 10 10 12 13 12 9 8 8 8 9 10 10 8 6 5 5 5 3 2 1 2 4 5 6 6 5 4 4 3 3 3 2 2
6 6 6 6 7 9 11 14 14 12 11 12 12 12 10 8 8 7 8 9 10 10 8 6 6 5 4 3 2 1 2 4 5 6 5 3 2 2 2 2 2 2 2
7 7 6 6 6 7 8 10 11 11 12 14 14 12 10 8 8 7 7 9 10 10 9 7 6 5 4 3 2 1 2 3 4 5 4 3 2 1 1 1 2 2 2
7 6 6 6 5 5 6 7 9 10 13 16 15 13 11 9 8 7 7 8 9 10 9 8 7 5 3 3 2 1 1 2 3 3 3 3 1 0 0 0 1 1 1
7 7 6 6 6 6 6 7 9 11 13 15 15 13 11 10 9 8 7 8 9 9 9 9 7 5 4 3 2 2 1 1 2 2 2 2 1 0 0 0 0 0 0
6 6 5 6 6 6 7 8 10 11 12 13 14 13 12 10 9 8 8 7 7 8 8 8 7 6 5 4 3 2 2 1 1 2 2 1 1 1 0 0 0 1 1
7 6 6 6 6 7 7 9 11 13 13 13 14 14 13 11 10 9 7 5 5 5 5 6 6 5 5 4 3 2 2 1 1 1 1 1 1 1 1 1 1 1 1
9 9 8 7 6 7 8 10 13 15 14 15 15 15 13 11 10 8 5 4 3 3 3 4 4 4 3 3 2 2 1 1 1 1 1 1 1 2 1 1 2 2 2
Wind_Speed
9 9 9 9 9 9 8 8 7 7 5 4 4 3 3 2 2 2 1 1 1 1 1 1 1 2 1 1 2 1 2 2 1 1 1 1 2 1 1 1 0 1 1
10 10 10 10 10 10 10 9 9 8 7 4 3 2 1 2 1 1 1 1 1 1 2 1 1 1 1 1 1 1 1 1 2 2 2 2 3 2 1 2 1 1 1
11 11 11 11 11 11 11 9 9 8 8 6 5 4 3 3 3 3 2 2 1 1 0 1 1 1 2 1 1 2 3 2 2 2 3 2 1 1 2 2 1 1 0
11 12 12 12 12 11 11 10 9 9 8 8 6 6 4 3 3 2 2 2 2 2 2 1 1 2 2 1 3 2 3 3 3 2 3 4 2 2 1 2 2 2 1
12 12 12 12 12 12 11 10 10 9 9 8 7 7 5 4 3 3 3 3 3 3 2 2 1 2 2 1 2 1 3 3 3 3 3 3 2 4 3 2 2 1 1
11 11 11 11 12 11 11 11 11 10 9 9 8 8 6 5 4 4 3 4 3 3 3 3 2 2 1 1 2 2 3 3 3 4 3 3 3 3 3 2 2 1 1
10 11 12 13 13 13 12 11 11 10 10 10 9 9 8 7 6 6 5 4 3 3 3 3 2 2 1 1 1 2 2 2 3 4 3 3 3 3 3 2 1 1 1
9 10 12 12 13 13 13 12 11 11 10 10 9 8 8 7 6 6 4 4 3 2 3 3 3 2 2 2 1 2 2 2 3 3 3 4 3 2 2 2 2 1 1
9 10 11 12 12 13 13 12 12 11 10 10 9 8 8 7 5 5 5 4 3 3 4 4 4 3 3 2 2 1 2 2 3 2 3 3 2 3 2 2 3 2 2
9 9 10 11 11 12 12 12 11 10 10 10 9 8 8 8 6 6 5 4 4 3 4 4 4 4 3 3 3 2 1 2 2 2 2 3 2 2 2 2 2 2 2
9 9 9 9 10 11 11 11 11 10 9 9 9 8 8 8 8 7 6 5 5 5 5 5 4 4 4 3 3 3 2 2 2 2 2 2 3 2 2 1 2 2 1
8 9 9 9 9 10 10 10 10 9 9 9 8 8 8 7 7 7 6 6 5 5 5 5 5 5 4 4 4 3 3 2 2 2 2 2 2 2 2 1 2 1 1
7 9 9 9 9 9 8 9 9 9 9 8 8 8 8 8 7 7 6 6 6 5 5 5 5 5 4 4 4 4 3 3 3 3 3 2 2 2 1 2 2 2 2
7 8 8 8 8 8 8 8 8 8 8 8 8 8 8 7 7 6 6 6 6 5 5 5 5 5 5 5 5 4 4 4 3 3 3 3 3 2 2 3 2 2 2
7 7 7 7 7 7 7 8 8 8 8 8 8 8 7 7 6 6 6 6 6 5 5 5 5 5 5 4 4 5 5 4 4 3 3 3 1 1 1 1 2 3 3
6 6 6 6 7 7 7 7 7 7 8 8 7 6 6 6 6 6 6 5 5 4 4 5 5 5 4 3 2 4 4 4 4 4 4 4 5 4 4 1 0 1 3
5 5 4 5 5 5 6 6 6 7 7 7 6 6 6 6 5 5 5 5 5 5 5 5 5 5 4 5 5 4 5 4 4 3 3 4 3 5 5 6 6 4 3
4 4 3 4 4 4 5 5 6 6 7 6 6 6 6 6 5 5 5 5 5 5 5 5 5 5 5 6 6 5 6 5 4 4 4 4 3 3 3 5 5 5 5
3 3 3 2 3 3 4 5 5 6 6 6 6 6 6 6 6 6 5 5 5 5 5 5 6 5 5 7 7 6 6 5 5 5 4 4 4 2 3 5 5 5 4
3 2 2 3 3 3 4 4 4 4 4 4 4 4 5 5 5 5 5 5 5 5 5 5 5 5 5 7 7 8 6 5 5 5 5 3 3 3 4 6 5 5 4
3 3 3 3 3 3 4 4 4 4 3 3 4 4 4 5 5 5 4 4 4 4 5 5 5 5 5 8 8 8 6 4 5 4 4 3 6 5 5 6 5 4 3
3 3 3 3 2 2 3 3 3 2 2 3 3 3 4 3 3 4 4 4 5 5 5 5 5 5 5 6 8 9 7 5 4 4 3 3 7 6 6 5 3 3 4
3 2 3 3 3 2 2 1 1 1 2 2 2 3 3 3 4 4 4 4 5 5 5 5 5 5 4 5 8 10 9 6 5 3 1 2 6 6 6 7 6 6 6
3 2 2 2 2 2 2 1 1 1 2 2 2 2 4 4 4 3 4 4 4 5 5 5 5 4 4 4 5 6 7 8 7 5 4 6 7 7 4 5 7 7 5
2 1 1 1 1 1 1 1 0 1 2 2 2 3 3 4 3 3 3 5 4 4 4 4 4 4 4 3 2 3 4 5 4 4 5 5 5 6 6 5 5 6 6
1 1 1 0 0 1 0 0 0 1 2 2 3 3 2 3 4 4 3 2 3 3 4 3 4 3 2 3 5 4 4 4 4 6 6 5 5 5 5 5 6 6 6
Wind_Direction
194 192 194 194 188 182 183 188 192 184 192 193 196 188 182 188 174 184 156 185 212 182 233 281 157 243 231 270 262 235 184 200 180 207 199 178 167 134 146 174 179 164 193
193 192 195 194 194 188 188 189 193 191 194 185 195 196 207 193 172 174 144 203 205 220 202 210 234 214 231 219 246 230 266 228 210 241 237 211 176 168 159 147 167 160 157
198 194 196 197 195 192 191 191 191 190 195 190 191 183 183 202 182 181 174 187 199 193 277 194 279 282 263 206 231 233 242 255 237 247 270 270 251 157 154 153 144 165 118
202 197 195 196 195 193 190 190 189 191 191 194 201 199 202 202 184 192 159 172 191 197 192 211 234 271 281 249 243 209 249 254 253 231 248 272 305 261 179 173 158 159 176
202 200 198 193 194 192 188 186 187 190 191 195 197 204 208 201 185 182 165 198 184 199 200 204 216 233 260 274 279 264 261 254 260 262 248 241 237 247 243 210 187 178 166
200 200 197 190 191 189 188 185 185 190 191 195 198 205 208 207 200 198 186 197 184 188 188 200 208 228 253 245 256 259 244 270 277 275 266 253 245 240 241 233 209 184 148
195 195 193 190 189 189 189 186 184 189 192 196 200 201 204 204 206 213 199 212 199 189 182 201 207 219 216 236 251 242 276 271 274 271 273 270 266 265 261 252 227 202 176
189 191 189 188 187 188 188 188 187 190 192 196 200 202 205 209 206 208 222 210 217 204 177 192 194 201 213 222 220 251 249 261 268 276 284 276 276 272 255 250 231 214 202
185 185 184 185 184 185 186 188 187 190 193 195 195 200 204 213 210 199 213 216 210 202 189 195 195 196 204 221 228 246 255 253 255 254 251 265 267 259 252 247 246 245 238
182 179 179 180 179 180 182 186 187 191 193 193 197 193 195 199 204 208 204 210 210 211 200 201 203 204 205 210 229 225 218 241 244 270 290 280 266 257 247 239 244 255 262
178 173 175 175 173 175 176 181 186 189 193 196 196 197 194 195 198 202 204 203 207 205 207 206 207 208 208 208 217 234 216 238 246 253 256 270 295 287 266 230 233 237 232
174 170 171 171 172 175 177 180 184 188 190 190 190 194 196 196 200 199 201 201 203 205 205 207 210 212 206 206 214 223 216 225 234 243 248 257 254 255 272 251 225 213 202
171 166 167 168 171 174 176 178 185 186 185 184 189 190 193 193 199 200 199 201 201 203 201 205 210 211 207 209 214 220 221 224 230 241 241 241 238 237 223 229 216 198 177
166 166 165 166 167 170 174 179 184 184 183 185 188 189 192 191 192 196 198 197 198 198 198 204 211 211 210 213 215 216 217 218 220 226 235 241 235 227 215 201 194 182 166
166 167 166 162 163 167 174 179 180 179 183 187 189 187 188 188 186 188 193 194 196 196 198 204 207 208 209 213 217 220 210 214 219 217 217 213 205 353 270 254 186 179 182
167 162 164 163 165 172 176 173 176 176 179 186 188 182 182 184 185 187 190 191 196 200 197 205 208 210 211 142 194 251 225 221 224 221 216 199 187 184 194 221 238 243 204
168 164 163 170 175 175 173 173 174 175 179 184 184 179 180 181 183 187 185 189 195 197 201 209 210 209 188 156 181 231 242 230 229 228 229 233 185 195 198 184 190 201 218
166 167 173 179 178 174 173 172 170 173 178 181 182 180 181 178 177 178 181 192 198 198 202 209 211 210 186 168 186 210 227 227 226 229 229 229 213 210 224 206 198 202 199
151 157 176 172 159 154 159 158 170 170 171 176 182 182 183 181 179 182 185 193 199 205 210 209 210 212 190 172 185 211 223 219 221 224 226 229 222 181 230 222 211 207 200
140 146 147 132 127 132 138 150 159 162 170 174 177 179 190 190 192 192 192 197 200 207 217 207 211 210 198 171 186 213 230 220 221 215 211 199 228 179 204 224 218 214 214
125 124 116 109 107 125 140 151 160 170 172 167 173 178 193 197 198 196 195 201 204 204 217 209 209 209 202 176 184 207 237 232 232 227 223 187 164 180 205 240 234 223 234
134 132 119 107 103 119 143 153 160 164 158 164 175 182 194 212 198 198 198 201 206 210 214 211 217 210 198 187 184 195 223 261 240 244 239 154 150 179 204 222 220 219 233
124 121 117 108 99 100 122 148 135 154 169 169 177 197 206 213 211 206 204 207 210 223 222 218 219 216 201 179 180 193 207 226 238 240 67 131 176 193 202 206 206 213 223
122 108 108 108 101 95 107 101 85 197 198 192 188 200 215 216 207 212 214 219 220 227 231 229 228 220 209 206 189 194 200 207 220 222 176 177 194 214 223 199 200 215 221
110 104 100 96 102 84 82 119 167 221 224 219 218 220 229 223 213 217 232 231 232 236 237 241 237 231 224 204 194 215 217 223 219 213 216 217 208 212 215 215 213 213 211
136 153 180 172 105 79 356 329 239 221 235 232 231 237 240 232 219 213 221 234 238 205 217 250 265 245 227 178 189 212 230 224 199 213 224 224 226 226 225 224 218 213 215